{"data":{"norad_id":65375,"epoch":"2026-05-24T11:54:29.782656Z","epoch_age_seconds":128636,"freshness":"FRESH","line1":"1 65375U 25190AA  26144.49617804  .00015310  00000+0  52831-3 0  9990","line2":"2 65375  53.1585 175.9059 0001133  85.4727 274.6403 15.30178451 41367","mean_motion":15.30178451,"eccentricity":0.0001133,"inclination_deg":53.1585,"raan_deg":175.9059,"arg_perigee_deg":85.4727,"mean_anomaly_deg":274.6403,"bstar":0.00052831,"rev_number":4136,"period_min":94.106670961085,"perigee_km":474.50291952474,"apogee_km":476.05590368361,"semimajor_km":6853.4164116042,"source":"CELESTRAK","updated_at":"2026-05-25T13:38:20.770522Z"}}